Flood From: 18-02-2018 16:00 Until: 19-02-2018 16:00 warning for: Flood Level: Yellow info button

Although rather usual in this region, locally or potentially dangerous phenomena are expected. (such as local winds, summer thunderstorms, rising streams or high waves) Be aware and pay attention to the latest weather updates, especially if you carry out activities exposed to weather or close to a stream or shoreline. 


Meteo18 Weather Cam more information Meteo18 Weather Cam


Thunder radar more information blitzortung!


Rain radar more information rain snow radar


Visit our other weather sites:

Template documentation
and downloads

And another site



Weather Underground History page Text

Daily Summary for February 21, 2017 Units:  Metric    English   Both
« Previous Day
Next Day »
Daily Weekly Monthly Yearly Custom
  High: Low: Average:
Temperature: -17.8 °C -12.9 °C -12.3 °C
Dew Point: -17.8 °C -13.2 °C -12.7 °C
Humidity: Humidity % 91 % 94 %
Wind Speed: 0 km/h 0 km/h 13 km/h
Wind Gust: 0 km/h - -
Wind:- - WSW
Pressure: 0 hPa 34645.6 hPa -
Precipitation: 0 mm    
Historical Graphs
 
 
Tabular Data for February 21, 2017
Time Temperature Dew Point Pressure Wind Wind Speed Wind Gust Humidity Rainfall Rate (Hourly)
-17.8 °C -17.8 °C 0 hPa Calm     Humidity % 0 mm
00:02 -12.9 °C -13.2 °C 34703.1 hPa SW 7.7 km/h 18.2 km/h 97 % 0 mm
00:07 -12.9 °C -13.2 °C 34703.1 hPa SSW 10.3 km/h 31.1 km/h 97 % 0 mm
00:12 -12.9 °C -13.2 °C 34716.7 hPa SW 12.9 km/h 31.1 km/h 97 % 0 mm
00:17 -12.9 °C -13.2 °C 34703.1 hPa WSW 10.3 km/h 31.1 km/h 97 % 0 mm
00:22 -12.9 °C -13.2 °C 34716.7 hPa SW 2.6 km/h 31.1 km/h 97 % 0 mm
00:27 -12.9 °C -13.2 °C 34716.7 hPa SSW 12.9 km/h 31.1 km/h 97 % 0 mm
00:32 -12.8 °C -13.1 °C 34703.1 hPa SSW 7.7 km/h 25.9 km/h 97 % 0 mm
00:37 -12.8 °C -13.1 °C 34703.1 hPa SW 12.9 km/h 25.9 km/h 97 % 0 mm
00:42 -12.8 °C -13.1 °C 34703.1 hPa SW 7.7 km/h 28.5 km/h 97 % 0 mm
00:47 -12.8 °C -13.1 °C 34716.7 hPa SW 15.6 km/h 28.5 km/h 97 % 0 mm
00:52 -12.8 °C -13.1 °C 34716.7 hPa SW 5.1 km/h 28.5 km/h 97 % 0 mm
00:57 -12.8 °C -13.1 °C 34716.7 hPa WSW 12.9 km/h 25.9 km/h 97 % 0 mm
01:02 -12.8 °C -13.1 °C 34703.1 hPa SSW 7.7 km/h 25.9 km/h 97 % 0 mm
01:07 -12.8 °C -13.1 °C 34703.1 hPa SW 12.9 km/h 28.5 km/h 97 % 0 mm
01:12 -12.7 °C -13 °C 34703.1 hPa SSW 10.3 km/h 28.5 km/h 97 % 0 mm
01:17 -12.7 °C -13 °C 34703.1 hPa SSW 10.3 km/h 33.6 km/h 97 % 0 mm
01:22 -12.7 °C -13 °C 34703.1 hPa SSW 10.3 km/h 33.6 km/h 97 % 0 mm
01:32 -12.7 °C -13 °C 34703.1 hPa SW 23.3 km/h 33.6 km/h 97 % 0 mm
01:37 -12.7 °C -13 °C 34703.1 hPa SW 7.7 km/h 31.1 km/h 97 % 0 mm
01:42 -12.7 °C -12.9 °C 34703.1 hPa SW 7.7 km/h 31.1 km/h 97 % 0 mm
01:47 -12.7 °C -12.9 °C 34703.1 hPa SW 25.9 km/h 31.1 km/h 97 % 0 mm
01:52 -12.7 °C -12.9 °C 34703.1 hPa WSW 7.7 km/h 31.1 km/h 97 % 0 mm
01:57 -12.7 °C -12.9 °C 34693 hPa SW 10.3 km/h 31.1 km/h 97 % 0 mm
02:02 -12.7 °C -12.9 °C 34693 hPa SSW 10.3 km/h 31.1 km/h 97 % 0 mm
02:07 -12.7 °C -12.9 °C 34693 hPa SW 20.8 km/h 36.2 km/h 97 % 0 mm
02:12 -12.7 °C -12.9 °C 34693 hPa SW 5.1 km/h 36.2 km/h 97 % 0 mm
02:17 -12.7 °C -12.9 °C 34693 hPa WSW 10.3 km/h 33.6 km/h 97 % 0 mm
02:22 -12.7 °C -12.9 °C 34693 hPa SW 28.5 km/h 33.6 km/h 97 % 0 mm
02:32 -12.7 °C -12.9 °C 34693 hPa SW 10.3 km/h 36.2 km/h 97 % 0 mm
02:37 -12.7 °C -12.9 °C 34693 hPa SW 7.7 km/h 36.2 km/h 97 % 0 mm
02:42 -12.7 °C -12.9 °C 34693 hPa West 18.2 km/h 33.6 km/h 97 % 0 mm
02:47 -12.7 °C -12.9 °C 34693 hPa SW 18.2 km/h 38.8 km/h 97 % 0 mm
02:52 -12.7 °C -12.9 °C 34693 hPa SW 10.3 km/h 38.8 km/h 97 % 0 mm
02:57 -12.7 °C -12.9 °C 34682.8 hPa WSW 18.2 km/h 38.8 km/h 97 % 0 mm
03:02 -12.7 °C -12.9 °C 34682.8 hPa WSW 18.2 km/h 38.8 km/h 97 % 0 mm
03:07 -12.7 °C -12.9 °C 34682.8 hPa WSW 10.3 km/h 38.8 km/h 97 % 0 mm
03:12 -12.7 °C -12.9 °C 34682.8 hPa SSW 12.9 km/h 38.8 km/h 97 % 0 mm
03:17 -12.7 °C -12.9 °C 34682.8 hPa WSW 10.3 km/h 41.4 km/h 97 % 0 mm
03:22 -12.7 °C -12.9 °C 34682.8 hPa West 10.3 km/h 41.4 km/h 97 % 0 mm
03:32 -12.7 °C -12.9 °C 34682.8 hPa West 15.6 km/h 33.6 km/h 97 % 0 mm
03:37 -12.7 °C -12.9 °C 34682.8 hPa WSW 12.9 km/h 36.2 km/h 97 % 0 mm
03:42 -12.7 °C -12.9 °C 34682.8 hPa SW 10.3 km/h 36.2 km/h 97 % 0 mm
03:47 -12.7 °C -12.9 °C 34669.3 hPa WSW 5.1 km/h 38.8 km/h 97 % 0 mm
03:52 -12.7 °C -13 °C 34669.3 hPa West 15.6 km/h 38.8 km/h 97 % 0 mm
03:57 -12.7 °C -13 °C 34669.3 hPa SSW 7.7 km/h 36.2 km/h 97 % 0 mm
04:02 -12.7 °C -13 °C 34669.3 hPa West 23.3 km/h 36.2 km/h 97 % 0 mm
04:07 -12.7 °C -13 °C 34669.3 hPa WSW 23.3 km/h 38.8 km/h 97 % 0 mm
04:12 -12.7 °C -13 °C 34669.3 hPa WSW 23.3 km/h 38.8 km/h 97 % 0 mm
04:17 -12.7 °C -13 °C 34669.3 hPa West 23.3 km/h 38.8 km/h 97 % 0 mm
04:22 -12.7 °C -13 °C 34669.3 hPa WSW 15.6 km/h 38.8 km/h 97 % 0 mm
04:32 -12.7 °C -13 °C 34669.3 hPa WSW 18.2 km/h 36.2 km/h 97 % 0 mm
04:37 -12.7 °C -13 °C 34669.3 hPa West 12.9 km/h 31.1 km/h 97 % 0 mm
04:42 -12.7 °C -13 °C 34669.3 hPa WSW 18.2 km/h 31.1 km/h 97 % 0 mm
04:47 -12.7 °C -13 °C 34659.1 hPa West 20.8 km/h 28.5 km/h 97 % 0 mm
04:52 -12.7 °C -13 °C 34659.1 hPa West 10.3 km/h 28.5 km/h 97 % 0 mm
04:57 -12.7 °C -13 °C 34669.3 hPa West 15.6 km/h 28.5 km/h 97 % 0 mm
05:02 -12.7 °C -13 °C 34669.3 hPa WSW 25.9 km/h 28.5 km/h 97 % 0 mm
05:12 -12.7 °C -13 °C 34659.1 hPa SW 15.6 km/h 28.5 km/h 97 % 0 mm
05:17 -12.7 °C -13 °C 34659.1 hPa SW 15.6 km/h 28.5 km/h 97 % 0 mm
05:22 -12.7 °C -12.9 °C 34659.1 hPa WSW 15.6 km/h 28.5 km/h 97 % 0 mm
05:32 -12.7 °C -12.9 °C 34659.1 hPa WSW 31.1 km/h 31.1 km/h 97 % 0 mm
05:52 -12.7 °C -12.9 °C 34669.3 hPa WSW 23.3 km/h 31.1 km/h 97 % 0 mm
06:02 -12.7 °C -12.9 °C 34669.3 hPa WSW 12.9 km/h 28.5 km/h 97 % 0 mm
06:12 -12.7 °C -12.9 °C 34669.3 hPa WSW 18.2 km/h 33.6 km/h 97 % 0 mm
06:17 -12.7 °C -12.9 °C 34669.3 hPa WNW 5.1 km/h 28.5 km/h 97 % 0 mm
06:22 -12.7 °C -13 °C 34669.3 hPa West 18.2 km/h 28.5 km/h 97 % 0 mm
06:32 -12.7 °C -13 °C 34659.1 hPa WSW 20.8 km/h 28.5 km/h 97 % 0 mm
06:42 -12.7 °C -13 °C 34659.1 hPa SW 18.2 km/h 33.6 km/h 97 % 0 mm
06:47 -12.7 °C -13 °C 34669.3 hPa WNW 12.9 km/h 33.6 km/h 97 % 0 mm
06:52 -12.7 °C -13 °C 34669.3 hPa WSW 12.9 km/h 33.6 km/h 97 % 0 mm
07:02 -12.7 °C -13 °C 34669.3 hPa WNW 15.6 km/h 31.1 km/h 97 % 0 mm
07:12 -12.7 °C -12.9 °C 34669.3 hPa West 12.9 km/h 25.9 km/h 97 % 0 mm
07:17 -12.7 °C -12.9 °C 34669.3 hPa WSW 18.2 km/h 28.5 km/h 97 % 0 mm
07:22 -12.7 °C -12.9 °C 34669.3 hPa WSW 23.3 km/h 28.5 km/h 97 % 0 mm
07:32 -12.7 °C -12.9 °C 34669.3 hPa West 15.6 km/h 28.5 km/h 97 % 0 mm
07:42 -12.6 °C -12.9 °C 34682.8 hPa West 15.6 km/h 36.2 km/h 97 % 0 mm
07:52 -12.6 °C -12.9 °C 34682.8 hPa WSW 23.3 km/h 36.2 km/h 97 % 0 mm
07:57 -12.6 °C -12.9 °C 34682.8 hPa West 12.9 km/h 31.1 km/h 97 % 0 mm
08:02 -12.6 °C -12.9 °C 34682.8 hPa West 12.9 km/h 31.1 km/h 97 % 0 mm
08:12 -12.6 °C -12.9 °C 34682.8 hPa West 10.3 km/h 28.5 km/h 97 % 0 mm
08:17 -12.6 °C -12.9 °C 34693 hPa WSW 15.6 km/h 28.5 km/h 97 % 0 mm
08:22 -12.6 °C -12.9 °C 34693 hPa West 10.3 km/h 28.5 km/h 97 % 0 mm
08:32 -12.6 °C -12.8 °C 34693 hPa West 12.9 km/h 25.9 km/h 97 % 0 mm
08:42 -12.6 °C -12.8 °C 34693 hPa WSW 7.7 km/h 25.9 km/h 97 % 0 mm
08:47 -12.5 °C -12.8 °C 34693 hPa WNW 7.7 km/h 25.9 km/h 97 % 0 mm
08:52 -12.4 °C -12.7 °C 34693 hPa West 7.7 km/h 25.9 km/h 97 % 0 mm
08:57 -12.4 °C -12.7 °C 34693 hPa West 12.9 km/h 23.3 km/h 97 % 0 mm
09:02 -12.4 °C -12.7 °C 34693 hPa WSW 28.5 km/h 28.5 km/h 97 % 0 mm
09:12 -12.3 °C -12.7 °C 34693 hPa West 18.2 km/h 28.5 km/h 96 % 0 mm
09:17 -12.3 °C -12.6 °C 34693 hPa West 12.9 km/h 28.5 km/h 96 % 0 mm
09:22 -12.3 °C -12.6 °C 34693 hPa WSW 12.9 km/h 28.5 km/h 96 % 0 mm
09:32 -12.2 °C -12.7 °C 34693 hPa West 20.8 km/h 33.6 km/h 95 % 0 mm
09:42 -12.2 °C -12.7 °C 34693 hPa West 18.2 km/h 33.6 km/h 95 % 0 mm
09:52 -12.3 °C -12.6 °C 34693 hPa West 10.3 km/h 36.2 km/h 96 % 0 mm
09:57 -12.3 °C -12.6 °C 34682.8 hPa WSW 20.8 km/h 36.2 km/h 96 % 0 mm
10:07 -12.2 °C -12.6 °C 34682.8 hPa West 18.2 km/h 33.6 km/h 96 % 0 mm
10:12 -12.2 °C -12.5 °C 34693 hPa WSW 15.6 km/h 33.6 km/h 96 % 0 mm
10:17 -12.2 °C -12.5 °C 34693 hPa NW 7.7 km/h 36.2 km/h 96 % 0 mm
10:22 -12.2 °C -12.5 °C 34693 hPa West 15.6 km/h 36.2 km/h 96 % 0 mm
10:32 -12.1 °C -12.4 °C 34703.1 hPa West 10.3 km/h 36.2 km/h 96 % 0 mm
10:37 -12.1 °C -12.4 °C 34693 hPa WNW 10.3 km/h 31.1 km/h 96 % 0 mm
10:42 -12.1 °C -12.4 °C 34693 hPa WNW 18.2 km/h 31.1 km/h 96 % 0 mm
10:47 -12.1 °C -12.5 °C 34693 hPa WNW 12.9 km/h 28.5 km/h 95 % 0 mm
10:52 -12 °C -12.4 °C 34693 hPa WSW 7.7 km/h 28.5 km/h 95 % 0 mm
11:02 -11.9 °C -12.4 °C 34693 hPa West 23.3 km/h 31.1 km/h 95 % 0 mm
11:12 -11.9 °C -12.4 °C 34703.1 hPa West 12.9 km/h 36.2 km/h 94 % 0 mm
11:17 -11.9 °C -12.4 °C 34703.1 hPa WSW 12.9 km/h 33.6 km/h 94 % 0 mm
11:22 -11.8 °C -12.3 °C 34703.1 hPa West 20.8 km/h 33.6 km/h 94 % 0 mm
11:27 -11.8 °C -12.3 °C 34703.1 hPa WNW 18.2 km/h 33.6 km/h 94 % 0 mm
11:32 -11.8 °C -12.3 °C 34703.1 hPa West 15.6 km/h 33.6 km/h 94 % 0 mm
11:37 -11.9 °C -12.5 °C 34703.1 hPa WNW 15.6 km/h 33.6 km/h 93 % 0 mm
11:42 -11.8 °C -12.4 °C 34703.1 hPa WNW 25.9 km/h 33.6 km/h 93 % 0 mm
11:47 -11.8 °C -12.4 °C 34703.1 hPa WNW 15.6 km/h 36.2 km/h 93 % 0 mm
11:52 -11.9 °C -12.4 °C 34703.1 hPa WSW 5.1 km/h 36.2 km/h 94 % 0 mm
11:57 -11.9 °C -12.4 °C 34703.1 hPa West 7.7 km/h 28.5 km/h 94 % 0 mm
12:02 -11.9 °C -12.4 °C 34703.1 hPa WNW 12.9 km/h 28.5 km/h 94 % 0 mm
12:12 -11.8 °C -12.3 °C 34703.1 hPa West 5.1 km/h 25.9 km/h 94 % 0 mm
12:17 -11.8 °C -12.4 °C 34703.1 hPa WNW 7.7 km/h 20.8 km/h 93 % 0 mm
12:22 -11.8 °C -12.4 °C 34703.1 hPa SW 5.1 km/h 18.2 km/h 92 % 0 mm
12:27 -11.7 °C -12.4 °C 34703.1 hPa West 12.9 km/h 18.2 km/h 92 % 0 mm
12:32 -11.7 °C -12.4 °C 34703.1 hPa WNW 12.9 km/h 31.1 km/h 92 % 0 mm
12:37 -11.7 °C -12.4 °C 34703.1 hPa WSW 12.9 km/h 31.1 km/h 92 % 0 mm
12:42 -11.7 °C -12.4 °C 34703.1 hPa West 5.1 km/h 23.3 km/h 92 % 0 mm
12:52 -11.8 °C -12.4 °C 34703.1 hPa WNW 10.3 km/h 20.8 km/h 93 % 0 mm
12:57 -11.8 °C -12.4 °C 34693 hPa WNW 5.1 km/h 38.8 km/h 93 % 0 mm
13:02 -11.8 °C -12.4 °C 34693 hPa NW 12.9 km/h 38.8 km/h 93 % 0 mm
13:07 -11.7 °C -12.3 °C 34693 hPa West 7.7 km/h 31.1 km/h 93 % 0 mm
13:12 -11.7 °C -12.3 °C 34693 hPa West 10.3 km/h 31.1 km/h 93 % 0 mm
13:22 -11.7 °C -12.3 °C 34693 hPa WNW 18.2 km/h 31.1 km/h 93 % 0 mm
13:27 -11.7 °C -12.4 °C 34682.8 hPa WNW 7.7 km/h 31.1 km/h 92 % 0 mm
13:32 -11.7 °C -12.4 °C 34682.8 hPa WSW 20.8 km/h 31.1 km/h 92 % 0 mm
13:37 -11.6 °C -12.3 °C 34682.8 hPa WNW 15.6 km/h 31.1 km/h 92 % 0 mm
13:42 -11.6 °C -12.3 °C 34682.8 hPa West 12.9 km/h 31.1 km/h 92 % 0 mm
13:47 -11.6 °C -12.3 °C 34682.8 hPa WSW 18.2 km/h 33.6 km/h 92 % 0 mm
13:52 -11.6 °C -12.3 °C 34682.8 hPa WSW 28.5 km/h 33.6 km/h 92 % 0 mm
13:57 -11.6 °C -12.3 °C 34682.8 hPa West 20.8 km/h 38.8 km/h 92 % 0 mm
14:02 -11.6 °C -12.3 °C 34682.8 hPa West 25.9 km/h 38.8 km/h 92 % 0 mm
14:07 -11.6 °C -12.3 °C 34669.3 hPa NW 20.8 km/h 44.1 km/h 92 % 0 mm
14:12 -11.6 °C -12.3 °C 34669.3 hPa WNW 18.2 km/h 44.1 km/h 92 % 0 mm
14:17 -11.6 °C -12.3 °C 34669.3 hPa SW 18.2 km/h 44.1 km/h 92 % 0 mm
14:22 -11.6 °C -12.3 °C 34669.3 hPa WSW 23.3 km/h 44.1 km/h 92 % 0 mm
14:27 -11.6 °C -12.3 °C 34669.3 hPa WSW 23.3 km/h 38.8 km/h 92 % 0 mm
14:32 -11.6 °C -12.3 °C 34669.3 hPa West 12.9 km/h 38.8 km/h 92 % 0 mm
14:37 -11.6 °C -12.3 °C 34669.3 hPa West 15.6 km/h 33.6 km/h 92 % 0 mm
14:42 -11.6 °C -12.3 °C 34669.3 hPa WSW 20.8 km/h 33.6 km/h 92 % 0 mm
14:47 -11.6 °C -12.3 °C 34669.3 hPa West 12.9 km/h 36.2 km/h 91 % 0 mm
14:52 -11.6 °C -12.3 °C 34669.3 hPa WSW 25.9 km/h 36.2 km/h 92 % 0 mm
14:57 -11.6 °C -12.3 °C 34669.3 hPa WSW 20.8 km/h 31.1 km/h 91 % 0 mm
15:02 -11.6 °C -12.3 °C 34669.3 hPa West 15.6 km/h 31.1 km/h 92 % 0 mm
15:07 -11.6 °C -12.3 °C 34669.3 hPa WSW 25.9 km/h 33.6 km/h 92 % 0 mm
15:12 -11.6 °C -12.3 °C 34669.3 hPa West 15.6 km/h 33.6 km/h 92 % 0 mm
15:17 -11.6 °C -12.3 °C 34659.1 hPa West 10.3 km/h 31.1 km/h 92 % 0 mm
15:22 -11.6 °C -12.3 °C 34669.3 hPa West 12.9 km/h 31.1 km/h 92 % 0 mm
15:32 -11.6 °C -12.3 °C 34669.3 hPa WSW 18.2 km/h 33.6 km/h 92 % 0 mm
15:37 -11.6 °C -12.3 °C 34669.3 hPa West 10.3 km/h 25.9 km/h 92 % 0 mm
15:42 -11.6 °C -12.3 °C 34659.1 hPa WSW 23.3 km/h 25.9 km/h 92 % 0 mm
15:47 -11.6 °C -12.3 °C 34659.1 hPa WSW 12.9 km/h 25.9 km/h 92 % 0 mm
15:52 -11.6 °C -12.3 °C 34659.1 hPa West 15.6 km/h 25.9 km/h 92 % 0 mm
15:57 -11.6 °C -12.3 °C 34659.1 hPa WSW 18.2 km/h 23.3 km/h 92 % 0 mm
16:02 -11.6 °C -12.3 °C 34659.1 hPa West 20.8 km/h 23.3 km/h 92 % 0 mm
16:07 -11.6 °C -12.3 °C 34659.1 hPa West 7.7 km/h 25.9 km/h 92 % 0 mm
16:12 -11.6 °C -12.3 °C 34659.1 hPa West 12.9 km/h 25.9 km/h 92 % 0 mm
16:17 -11.6 °C -12.3 °C 34659.1 hPa West 15.6 km/h 25.9 km/h 92 % 0 mm
16:22 -11.6 °C -12.3 °C 34659.1 hPa WSW 15.6 km/h 25.9 km/h 92 % 0 mm
16:32 -11.6 °C -12.3 °C 34659.1 hPa WSW 18.2 km/h 28.5 km/h 92 % 0 mm
16:37 -11.6 °C -12.3 °C 34659.1 hPa West 15.6 km/h 28.5 km/h 92 % 0 mm
16:42 -11.7 °C -12.3 °C 34645.6 hPa West 12.9 km/h 28.5 km/h 92 % 0 mm
16:47 -11.7 °C -12.3 °C 34645.6 hPa WNW 10.3 km/h 28.5 km/h 92 % 0 mm
16:52 -11.7 °C -12.4 °C 34645.6 hPa WNW 10.3 km/h 28.5 km/h 91 % 0 mm
16:57 -11.7 °C -12.4 °C 34659.1 hPa WSW 18.2 km/h 28.5 km/h 91 % 0 mm
17:02 -11.7 °C -12.4 °C 34659.1 hPa West 15.6 km/h 28.5 km/h 91 % 0 mm
17:07 -11.7 °C -12.5 °C 34659.1 hPa WSW 15.6 km/h 28.5 km/h 91 % 0 mm
17:12 -11.7 °C -12.5 °C 34645.6 hPa West 5.1 km/h 28.5 km/h 91 % 0 mm
17:17 -11.7 °C -12.5 °C 34645.6 hPa West 7.7 km/h 23.3 km/h 91 % 0 mm
17:22 -11.7 °C -12.5 °C 34645.6 hPa West 5.1 km/h 23.3 km/h 91 % 0 mm
17:32 -11.7 °C -12.5 °C 34645.6 hPa West 7.7 km/h 23.3 km/h 91 % 0 mm
17:37 -11.8 °C -12.6 °C 34645.6 hPa WSW 15.6 km/h 23.3 km/h 91 % 0 mm
17:42 -11.8 °C -12.6 °C 34645.6 hPa West 12.9 km/h 23.3 km/h 91 % 0 mm
17:52 -11.8 °C -12.5 °C 34645.6 hPa WSW 7.7 km/h 23.3 km/h 92 % 0 mm
17:57 -11.8 °C -12.6 °C 34645.6 hPa West 7.7 km/h 23.3 km/h 91 % 0 mm
18:02 -11.8 °C -12.6 °C 34645.6 hPa West 12.9 km/h 23.3 km/h 91 % 0 mm
18:07 -11.9 °C -12.7 °C 34645.6 hPa WSW 18.2 km/h 20.8 km/h 91 % 0 mm
18:12 -11.9 °C -12.6 °C 34645.6 hPa WSW 5.1 km/h 20.8 km/h 92 % 0 mm
18:17 -11.9 °C -12.6 °C 34645.6 hPa WSW 2.6 km/h 20.8 km/h 92 % 0 mm
18:22 -11.9 °C -12.6 °C 34645.6 hPa West 10.3 km/h 20.8 km/h 92 % 0 mm
18:27 -11.9 °C -12.6 °C 34659.1 hPa West 7.7 km/h 20.8 km/h 92 % 0 mm
18:32 -12 °C -12.7 °C 34659.1 hPa West 7.7 km/h 15.6 km/h 92 % 0 mm
18:37 -12 °C -12.6 °C 34659.1 hPa West 10.3 km/h 15.6 km/h 93 % 0 mm
18:42 -12.1 °C -12.7 °C 34659.1 hPa WNW 5.1 km/h 12.9 km/h 93 % 0 mm
18:47 -12.1 °C -12.7 °C 34659.1 hPa WNW 7.7 km/h 12.9 km/h 93 % 0 mm
18:57 -12.1 °C -12.7 °C 34659.1 hPa West 5.1 km/h 12.9 km/h 93 % 0 mm
19:02 -12.1 °C -12.7 °C 34659.1 hPa West 5.1 km/h 12.9 km/h 93 % 0 mm
19:07 -12.1 °C -12.7 °C 34659.1 hPa West 5.1 km/h 12.9 km/h 93 % 0 mm
19:12 -12.1 °C -12.7 °C 34659.1 hPa WSW 10.3 km/h 12.9 km/h 93 % 0 mm
19:17 -12.2 °C -12.7 °C 34659.1 hPa WSW 7.7 km/h 12.9 km/h 94 % 0 mm
19:22 -12.2 °C -12.7 °C 34659.1 hPa West 7.7 km/h 12.9 km/h 94 % 0 mm
19:27 -12.2 °C -12.7 °C 34659.1 hPa SW 5.1 km/h 18.2 km/h 94 % 0 mm
19:32 -12.2 °C -12.7 °C 34659.1 hPa West 7.7 km/h 18.2 km/h 94 % 0 mm
19:37 -12.3 °C -12.8 °C 34659.1 hPa WSW 10.3 km/h 15.6 km/h 94 % 0 mm
19:42 -12.3 °C -12.7 °C 34659.1 hPa WNW 5.1 km/h 15.6 km/h 95 % 0 mm
19:47 -12.3 °C -12.7 °C 34659.1 hPa West 7.7 km/h 15.6 km/h 95 % 0 mm
19:52 -12.3 °C -12.7 °C 34659.1 hPa West 7.7 km/h 15.6 km/h 95 % 0 mm
19:57 -12.3 °C -12.8 °C 34645.6 hPa West 5.1 km/h 15.6 km/h 95 % 0 mm
20:02 -12.3 °C -12.8 °C 34659.1 hPa West 7.7 km/h 15.6 km/h 95 % 0 mm
20:12 -12.3 °C -12.8 °C 34659.1 hPa WSW 7.7 km/h 18.2 km/h 95 % 0 mm
20:17 -12.3 °C -12.8 °C 34659.1 hPa WSW 10.3 km/h 15.6 km/h 95 % 0 mm
20:22 -12.4 °C -12.8 °C 34659.1 hPa West 5.1 km/h 15.6 km/h 95 % 0 mm
20:27 -12.4 °C -12.8 °C 34659.1 hPa West 7.7 km/h 10.3 km/h 95 % 0 mm
20:32 -12.3 °C -12.8 °C 34659.1 hPa SW 7.7 km/h 10.3 km/h 95 % 0 mm
20:37 -12.3 °C -12.8 °C 34659.1 hPa SSW 2.6 km/h 20.8 km/h 94 % 0 mm
20:42 -12.3 °C -12.8 °C 34659.1 hPa WSW 10.3 km/h 20.8 km/h 94 % 0 mm
20:47 -12.3 °C -12.8 °C 34659.1 hPa SW 5.1 km/h 20.8 km/h 94 % 0 mm
20:52 -12.3 °C -12.8 °C 34659.1 hPa SW 5.1 km/h 20.8 km/h 94 % 0 mm
20:57 -12.3 °C -12.8 °C 34659.1 hPa WSW 12.9 km/h 20.8 km/h 94 % 0 mm
21:02 -12.4 °C -12.9 °C 34659.1 hPa WSW 7.7 km/h 20.8 km/h 94 % 0 mm
21:07 -12.4 °C -12.9 °C 34659.1 hPa WSW 10.3 km/h 20.8 km/h 94 % 0 mm
21:12 -12.4 °C -12.9 °C 34659.1 hPa WSW 12.9 km/h 20.8 km/h 94 % 0 mm
21:17 -12.4 °C -12.9 °C 34659.1 hPa SW 7.7 km/h 23.3 km/h 94 % 0 mm
21:22 -12.4 °C -12.9 °C 34659.1 hPa SSW 7.7 km/h 23.3 km/h 94 % 0 mm
21:27 -12.4 °C -12.9 °C 34645.6 hPa WSW 15.6 km/h 23.3 km/h 95 % 0 mm
21:32 -12.4 °C -12.9 °C 34645.6 hPa WSW 10.3 km/h 23.3 km/h 95 % 0 mm
21:37 -12.4 °C -12.9 °C 34645.6 hPa WSW 12.9 km/h 23.3 km/h 94 % 0 mm
21:42 -12.4 °C -12.9 °C 34645.6 hPa SW 7.7 km/h 23.3 km/h 94 % 0 mm
21:47 -12.4 °C -12.9 °C 34645.6 hPa WSW 10.3 km/h 20.8 km/h 94 % 0 mm
21:52 -12.4 °C -12.9 °C 34645.6 hPa WSW 5.1 km/h 20.8 km/h 94 % 0 mm
21:57 -12.4 °C -12.9 °C 34645.6 hPa West 12.9 km/h 15.6 km/h 94 % 0 mm
22:02 -12.4 °C -12.9 °C 34645.6 hPa WSW 15.6 km/h 15.6 km/h 94 % 0 mm
22:07 -12.4 °C -12.9 °C 34645.6 hPa West 12.9 km/h 18.2 km/h 94 % 0 mm
22:12 -12.4 °C -12.9 °C 34645.6 hPa WSW 15.6 km/h 18.2 km/h 94 % 0 mm
22:17 -12.4 °C -12.9 °C 34645.6 hPa WSW 5.1 km/h 23.3 km/h 94 % 0 mm
22:22 -12.4 °C -12.9 °C 34645.6 hPa West 7.7 km/h 23.3 km/h 94 % 0 mm
22:27 -12.4 °C -12.9 °C 34645.6 hPa West 5.1 km/h 25.9 km/h 94 % 0 mm
22:32 -12.4 °C -12.9 °C 34645.6 hPa West 7.7 km/h 25.9 km/h 94 % 0 mm
22:37 -12.4 °C -12.9 °C 34645.6 hPa SSW 10.3 km/h 28.5 km/h 94 % 0 mm
22:42 -12.4 °C -12.9 °C 34645.6 hPa SW 7.7 km/h 28.5 km/h 94 % 0 mm
22:47 -12.5 °C -13 °C 34645.6 hPa West 15.6 km/h 23.3 km/h 94 % 0 mm
22:52 -12.5 °C -13 °C 34645.6 hPa WSW 18.2 km/h 23.3 km/h 94 % 0 mm
22:57 -12.5 °C -13 °C 34645.6 hPa SW 15.6 km/h 33.6 km/h 94 % 0 mm
23:02 -12.6 °C -13.1 °C 34645.6 hPa West 12.9 km/h 33.6 km/h 94 % 0 mm
23:07 -12.6 °C -13.1 °C 34645.6 hPa WSW 7.7 km/h 33.6 km/h 94 % 0 mm
23:12 -12.6 °C -13.1 °C 34645.6 hPa West 18.2 km/h 33.6 km/h 94 % 0 mm
23:17 -12.6 °C -13.1 °C 34645.6 hPa WSW 10.3 km/h 25.9 km/h 94 % 0 mm
23:22 -12.6 °C -13.1 °C 34645.6 hPa WSW 10.3 km/h 25.9 km/h 94 % 0 mm
23:27 -12.6 °C -13.1 °C 34645.6 hPa SW 18.2 km/h 25.9 km/h 94 % 0 mm
23:32 -12.6 °C -13.1 °C 34645.6 hPa West 15.6 km/h 25.9 km/h 94 % 0 mm
23:37 -12.6 °C -13.1 °C 34645.6 hPa WSW 18.2 km/h 25.9 km/h 94 % 0 mm
23:42 -12.6 °C -13.1 °C 34645.6 hPa Calm   25.9 km/h 94 % 0 mm
23:47 -12.6 °C -13.1 °C 34645.6 hPa WSW 12.9 km/h 23.3 km/h 94 % 0 mm
23:52 -12.6 °C -13.1 °C 34645.6 hPa SW 15.6 km/h 23.3 km/h 94 % 0 mm
23:57 -12.6 °C -13.1 °C 34645.6 hPa WSW 7.7 km/h 25.9 km/h 94 % 0 mm
Meteo18
Compliments of Weather Underground - 4 mb

Script developed by  Jim McMurry - jmcmurry@mwt.net Adapted for the template by  Wim van der Kuil - Leuven-Template.eu

You find our weather info also at:

European Weather Network

Weather Underground

Equipment we use:

Weather-station
Davis Vue

Weather-program
Meteobridge

Weather-server
Raspberry PI 2 B+

Provider
1 and 1

Davis Vue

Meteobridge

Raspberry PI 2 B+

1 and 1